CW9561 Weather Reports


time (UTC)temp
F
wind
direction
speed
knots
gust
knots
rain 1hr
in
rain 24hr
in
rain mn
in
humidity
%
barometer
mb
20260906044029 55 263 2.6 0.0 0.00 0.00 0.00 59 1027.8
20260906043025 55 263 2.6 0.0 0.00 0.00 0.00 59 1027.9
20260906042024 55 263 2.6 0.0 0.00 0.00 0.00 59 1027.9
20260906035027 57 263 0.0 0.0 0.00 0.00 0.00 55 1027.6
20260906034025 57 263 0.9 0.0 0.00 0.00 0.00 54 1027.5
20260906033027 57 263 0.0 0.0 0.00 0.00 0.00 54 1027.4
20260906032024 58 263 0.0 0.0 0.00 0.00 0.00 52 1027.4
20260906031041 59 263 0.0 0.0 0.00 0.00 0.00 51 1027.2
20260906030038 60 263 0.9 0.0 0.00 0.00 0.00 50 1027.2
20260906025035 62 263 0.0 0.0 0.00 0.00 0.00 49 1027.0
20260906024037 63 263 0.0 0.0 0.00 0.00 0.00 46 1026.8
20260906023035 64 263 0.0 0.0 0.00 0.00 0.00 45 1026.5
20260906022033 64 263 0.0 0.0 0.00 0.00 0.00 45 1026.3
20260906021032 64 263 0.0 0.0 0.00 0.00 0.00 45 1026.2
20260906020034 65 263 0.0 0.0 0.00 0.00 0.00 45 1026.2
20260906015031 65 263 0.0 0.0 0.00 0.00 0.00 44 1026.1
20260906014027 66 263 0.0 0.0 0.00 0.00 0.00 44 1026.0
20260906013023 67 263 0.0 0.0 0.00 0.00 0.00 41 1025.8
20260906012038 68 263 0.0 0.0 0.00 0.00 0.00 40 1025.9
20260906011041 69 263 0.0 0.0 0.00 0.00 0.00 37 1026.0
20260906010037 70 263 0.0 0.0 0.00 0.00 0.00 35 1026.0
20260906005035 71 263 0.0 0.0 0.00 0.00 0.00 36 1026.0
20260906004030 72 263 0.0 0.0 0.00 0.00 0.00 32 1026.0
20260906003033 73 263 0.0 0.0 0.00 0.00 0.00 32 1026.1
20260906002031 73 246 0.0 0.0 0.00 0.00 0.00 32 1026.1
20260906001028 73 245 0.0 0.0 0.00 0.00 0.00 30 1025.9
20260906000026 73 232 0.0 0.0 0.00 0.00 0.00 31 1025.9
20260905235026 73 232 0.0 0.0 0.00 0.00 0.00 31 1025.8
20260905234026 73 232 0.0 0.0 0.00 0.00 0.00 30 1025.8
20260905233023 74 231 0.0 0.0 0.00 0.00 0.00 29 1025.8
20260905232039 74 232 0.0 0.0 0.00 0.00 0.00 30 1025.7
20260905231034 75 225 0.0 0.0 0.00 0.00 0.00 30 1025.7
20260905230035 75 225 0.0 0.0 0.00 0.00 0.00 31 1025.7
20260905225031 75 144 0.0 0.0 0.00 0.00 0.00 29 1025.6
20260905223033 76 210 0.0 0.0 0.00 0.00 0.00 27 1025.6
20260905220036 78 271 0.9 0.0 0.00 0.00 0.00 26 1025.6
20260905215033 78 214 0.9 0.0 0.00 0.00 0.00 24 1025.7
20260905214029 78 138 0.9 0.0 0.00 0.00 0.00 25 1025.9
20260905213026 78 319 0.9 0.0 0.00 0.00 0.00 25 1026.1
20260905212032 77 337 0.9 0.0 0.00 0.00 0.00 29 1026.0
20260905211031 77 262 0.9 0.0 0.00 0.00 0.00 28 1026.5
20260905210029 75 159 1.7 0.0 0.00 0.00 0.00 30 1026.5
20260905205024 75 121 0.0 0.0 0.00 0.00 0.00 31 1026.5
20260905203027 77 187 1.7 0.0 0.00 0.00 0.00 28 1026.8
20260905201024 77 187 0.9 0.0 0.00 0.00 0.00 29 1026.9
20260905200025 77 121 0.0 0.0 0.00 0.00 0.00 30 1027.0
20260905195026 77 213 0.9 0.0 0.00 0.00 0.00 31 1027.3
20260905194022 76 278 0.9 0.0 0.00 0.00 0.00 30 1027.4
20260905193023 75 292 0.9 0.0 0.00 0.00 0.00 32 1027.7
20260905192038 73 167 0.0 0.0 0.00 0.00 0.00 32 1027.9
20260905191034 73 181 0.9 0.0 0.00 0.00 0.00 34 1027.9
20260905190019 74 77 0.9 0.0 0.00 0.00 0.00 35 1027.8
20260905185022 73 121 0.9 0.0 0.00 0.00 0.00 35 1027.9
20260905184040 72 87 1.7 0.0 0.00 0.00 0.00 39 1028.1
20260905183018 71 111 0.9 0.0 0.00 0.00 0.00 41 1028.1
20260905182024 70 95 2.6 0.0 0.00 0.00 0.00 41 1028.2
20260905181021 69 121 3.5 0.0 0.00 0.00 0.00 42 1028.3
20260905180022 70 92 0.9 0.0 0.00 0.00 0.00 41 1028.3
20260905175038 72 192 0.9 0.0 0.00 0.00 0.00 40 1028.4
20260905174034 70 150 1.7 0.0 0.00 0.00 0.00 41 1028.5
20260905172020 67 92 0.9 0.0 0.00 0.00 0.00 47 1028.7
20260905171038 66 69 1.7 0.0 0.00 0.00 0.00 49 1028.9
20260905170037 65 76 0.9 0.0 0.00 0.00 0.00 49 1029.2
20260905164040 65 92 0.9 0.0 0.00 0.00 0.00 49 1029.0
20260905163017 64 90 0.9 0.0 0.00 0.00 0.00 50 1029.0
20260905162038 62 331 0.0 0.0 0.00 0.00 0.00 52 1028.9
20260905161034 61 68 0.0 0.0 0.00 0.00 0.00 52 1029.0
20260905160036 60 68 0.0 0.0 0.00 0.00 0.00 54 1029.1
20260905155035 62 78 0.0 0.0 0.00 0.00 0.00 51 1029.0
20260905154032 61 341 0.0 0.0 0.00 0.00 0.00 53 1029.0
20260905153031 61 72 0.0 0.0 0.00 0.00 0.00 54 1028.4
20260905152030 60 86 0.0 0.0 0.00 0.00 0.00 55 1028.6
20260905151029 58 86 0.0 0.0 0.00 0.00 0.00 56 1028.6
20260905150026 59 86 0.0 0.0 0.00 0.00 0.00 54 1028.6
20260905145026 59 86 0.9 0.0 0.00 0.00 0.00 56 1028.7
20260905143031 59 280 0.0 0.0 0.00 0.00 0.00 56 1028.8
20260905142027 57 280 0.0 0.0 0.00 0.00 0.00 58 1028.9
20260905141025 57 281 0.0 0.0 0.00 0.00 0.00 58 1028.9
20260905135020 54 281 0.0 0.0 0.00 0.00 0.00 61 1028.9
20260905134023 51 280 0.0 0.0 0.00 0.00 0.00 68 1029.1
20260905131022 47 280 0.0 0.0 0.00 0.00 0.00 71 1027.9
20260905130021 46 280 0.0 0.0 0.00 0.00 0.00 72 1027.9
20260905125022 45 280 0.0 0.0 0.00 0.00 0.00 73 1027.9
20260905124021 45 280 1.7 0.0 0.00 0.00 0.00 73 1027.9
20260905121038 46 280 1.7 0.0 0.00 0.00 0.00 70 1028.2
20260905120039 47 280 0.0 0.0 0.00 0.00 0.00 69 1028.1
20260905115036 47 280 0.0 0.0 0.00 0.00 0.00 68 1028.1
20260905113038 49 280 0.0 0.0 0.00 0.00 0.00 63 1028.3
20260905112018 49 280 0.0 0.0 0.00 0.00 0.00 64 1028.1
20260905105035 48 280 0.0 0.0 0.00 0.00 0.00 67 1027.1
20260905104036 48 280 0.0 0.0 0.00 0.00 0.00 67 1027.1
20260905103031 49 280 0.0 0.0 0.00 0.00 0.00 65 1027.2
20260905102031 50 280 0.0 0.0 0.00 0.00 0.00 64 1027.1
20260905095035 53 280 0.0 0.0 0.00 0.00 0.00 58 1026.8
20260905094036 54 280 0.0 0.0 0.00 0.00 0.00 57 1026.7
20260905093032 52 280 0.0 0.0 0.00 0.00 0.00 59 1026.5
20260905092032 51 280 0.0 0.0 0.00 0.00 0.00 61 1026.5
20260905091028 49 280 0.0 0.0 0.00 0.00 0.00 64 1026.6
20260905090029 49 280 1.7 0.0 0.00 0.00 0.00 65 1026.6
20260905085030 49 280 0.0 0.0 0.00 0.00 0.00 65 1026.6
20260905084028 50 280 0.0 0.0 0.00 0.00 0.00 64 1026.6
20260905083025 50 280 0.0 0.0 0.00 0.00 0.00 64 1026.6
20260905081024 51 280 0.0 0.0 0.00 0.00 0.00 62 1026.3
20260905080020 51 280 0.0 0.0 0.00 0.00 0.00 61 1026.2
20260905075024 52 280 0.9 0.0 0.00 0.00 0.00 61 1026.2
20260905074020 53 280 0.0 0.0 0.00 0.00 0.00 59 1026.2
20260905073039 54 280 0.0 0.0 0.00 0.00 0.00 56 1026.3
20260905072020 55 280 0.0 0.0 0.00 0.00 0.00 55 1026.3
20260905071037 55 280 0.0 0.0 0.00 0.00 0.00 54 1026.1
20260905070033 56 280 0.0 0.0 0.00 0.00 0.00 53 1025.9
20260905063022 56 280 0.0 0.0 0.00 0.00 0.00 52 1026.0
20260905062037 56 280 0.0 0.0 0.00 0.00 0.00 53 1026.0
20260905061036 56 280 0.0 0.0 0.00 0.00 0.00 53 1026.1
20260905060033 57 280 0.0 0.0 0.00 0.00 0.00 53 1026.1
20260905055036 57 280 0.0 0.0 0.00 0.00 0.00 52 1026.0
20260905054033 57 280 0.0 0.0 0.00 0.00 0.00 52 1025.8
20260905053029 56 280 0.0 0.0 0.00 0.00 0.00 53 1025.8
20260905052026 57 280 0.0 0.0 0.00 0.00 0.00 53 1026.0
20260905051026 56 280 0.0 0.0 0.00 0.00 0.00 54 1026.1
20260905050027 55 280 0.0 0.0 0.00 0.00 0.00 55 1026.0
20260905045023 54 280 0.0 0.0 0.00 0.00 0.00 57 1026.1